User: anonymous   Login
Location: Brno
(49.2000°N, 16.6330°E)
Time: 20:32:28
(UTC+02:00)
Language:

Cosmos 332 Rocket - Orbit

View from above orbital plane
View from above orbital plane
View from above satellite
View from above satellite

Ground track
Ground track

The orbit data is extracted from the following two-line orbital elements,

1  4370U 70028B   17289.91753400 +.00000072 +00000-0 +21236-4 0  9994
2  4370 074.0401 217.0407 0014342 105.7944 254.4804 14.59886435029266
Epoch (UTC): 16 October 2017 22:01:14
Eccentricity: 0.0014342
inclination: 74.0401°
perigee height: 683 km
apogee height: 703 km
right ascension of ascending node: 217.0407°
argument of perigee: 105.7944°
revolutions per day: 14.59886435
mean anomaly at epoch: 254.4804°
orbit number at epoch: 2926

The dashed part of the orbit path shows where the satellite is in the earth's shadow,  

DLR